Lapse_Rate
7.2 6.5 6.5 6.5 6.5 6.5 6.5 6.5 6.5 6.5 6.6 6.5 6.5 6.5 6.5 6.7 6.9 7.0 7.2 7.3 7.6 7.7 8.3 8.5 8.9 9.0 8.7 7.9 7.3 7.7 7.4 7.0 7.7 7.9 7.8 7.9 7.6 7.0 7.6 8.2 7.6 7.7 7.7 7.6
6.4 6.5 6.5 6.5 6.5 6.5 6.5 6.5 6.5 6.5 6.5 6.5 6.5 6.5 6.5 6.5 6.7 7.0 7.1 7.2 7.5 7.5 8.1 7.9 8.7 8.8 8.9 7.9 8.0 8.1 7.8 6.6 7.0 7.8 8.1 7.6 7.2 7.6 7.4 8.1 7.6 8.0 7.9 8.4
6.5 6.5 6.5 6.5 6.5 6.5 6.5 6.5 6.5 6.5 6.5 6.5 6.5 6.6 6.5 6.5 6.8 7.1 7.4 7.6 7.6 7.4 7.9 8.2 8.5 8.7 8.8 8.3 7.9 7.9 7.0 6.9 7.1 7.5 7.8 7.9 7.8 7.4 7.2 7.4 7.0 7.7 7.2 7.3
6.5 6.7 6.5 6.5 6.5 6.5 6.5 6.5 6.5 6.6 6.5 6.5 6.5 6.5 6.5 6.5 6.5 6.5 7.0 7.4 7.6 7.8 8.2 8.4 8.5 8.7 8.8 8.5 8.6 8.0 8.0 7.5 7.4 7.6 7.7 7.7 7.7 8.0 8.1 7.4 7.9 6.7 7.5 6.8
6.5 6.5 6.5 6.5 6.5 6.5 6.5 6.5 6.5 6.5 6.5 6.5 6.5 6.5 6.5 6.5 6.5 6.5 6.7 7.0 7.5 7.4 8.2 8.4 8.7 8.8 8.8 8.5 9.0 8.7 7.7 7.8 7.5 7.4 7.6 7.7 7.5 8.3 8.1 8.0 6.3 6.1 6.8 7.3
6.5 7.1 6.5 6.5 6.5 6.5 6.5 6.5 6.5 6.5 6.5 6.5 6.5 6.5 6.5 6.5 6.5 6.5 6.5 7.1 7.4 7.7 8.2 8.2 8.4 8.6 8.8 8.6 9.1 8.9 7.4 7.5 7.8 7.2 7.0 7.6 7.5 7.7 7.4 6.9 5.6 6.4 6.0 7.0
6.5 6.5 6.5 6.8 6.5 6.5 6.5 6.5 6.5 6.6 6.5 6.5 6.5 6.5 6.5 6.5 6.5 6.5 6.5 7.0 7.5 7.7 8.0 8.3 8.0 8.6 8.4 8.1 8.7 8.6 7.3 7.2 7.7 7.6 7.6 7.2 7.6 7.4 7.2 6.8 6.3 6.2 6.1 6.3
6.5 6.5 6.5 6.5 6.5 6.4 6.5 6.5 6.5 6.5 6.5 6.5 6.5 6.5 6.5 6.5 6.8 7.0 7.2 7.4 7.6 7.8 8.0 8.4 8.4 8.2 8.0 8.2 8.4 8.1 7.9 6.7 7.7 7.8 7.4 7.0 7.6 7.9 7.9 7.6 7.5 6.1 6.1 6.1
6.5 6.5 6.6 6.5 6.5 6.5 6.5 6.4 6.5 6.5 6.5 6.5 6.5 6.5 6.5 6.5 6.5 6.7 6.8 7.2 7.4 7.6 7.8 8.0 8.3 8.3 8.1 8.1 8.4 7.9 6.9 6.9 7.8 8.3 7.6 6.9 7.4 7.5 8.5 7.6 7.2 6.7 6.7 6.9
6.6 6.5 6.5 6.5 6.7 6.6 6.5 6.5 6.5 6.5 6.5 6.5 6.5 6.5 6.5 6.5 6.5 6.5 6.6 6.8 7.3 7.7 7.9 8.0 8.2 8.5 8.4 8.9 8.8 8.4 7.8 7.4 8.5 9.3 8.3 7.4 7.3 7.4 7.3 7.8 7.4 7.7 7.2 6.3
6.5 6.5 6.5 6.5 6.5 6.5 6.5 6.5 6.5 6.5 6.5 6.5 6.5 6.5 6.5 6.5 6.5 6.5 6.6 7.0 7.3 7.6 7.7 8.0 8.2 8.4 8.6 8.8 8.8 8.4 8.3 8.8 8.8 8.8 8.6 7.7 7.1 7.7 7.2 7.9 7.7 7.5 7.2 6.5
6.5 6.6 6.5 6.5 6.4 6.6 6.5 6.5 6.5 6.5 6.5 6.5 6.5 6.5 6.5 6.5 6.6 6.8 7.0 7.2 7.5 7.6 7.9 8.1 8.2 8.3 8.5 8.5 8.7 8.6 8.7 9.3 9.0 8.6 7.9 8.1 7.5 7.1 7.0 7.3 7.6 7.5 7.1 7.2
6.5 6.5 6.5 6.5 6.5 6.5 6.5 6.5 6.5 6.5 6.5 6.5 6.6 6.5 6.5 6.5 6.5 6.8 6.8 7.2 7.4 7.5 7.8 8.0 8.1 8.1 8.3 8.5 8.5 8.9 8.8 9.0 9.1 8.2 8.3 8.3 8.5 8.8 8.4 7.3 6.9 6.7 7.0 6.7
5.8 6.6 6.5 6.5 6.5 6.5 6.5 6.5 6.5 6.5 6.5 6.5 6.5 6.5 6.5 6.5 6.5 6.6 7.0 7.2 7.4 7.4 7.6 7.9 8.1 8.2 7.9 7.6 7.4 7.4 8.1 8.8 8.5 8.6 8.6 8.2 8.6 8.8 8.7 7.8 6.7 6.2 6.5 6.5
6.5 6.5 6.5 6.6 6.5 6.6 6.5 6.5 6.5 6.5 6.5 6.5 6.5 6.5 6.5 6.5 6.5 5.7 5.4 7.3 7.2 7.4 7.5 7.7 7.9 7.6 6.4 6.6 6.1 6.4 8.0 7.9 8.6 7.7 8.4 7.7 7.7 8.2 7.7 7.3 6.7 6.7 6.0 5.6
6.5 6.5 6.5 6.5 6.5 6.5 6.4 6.5 6.6 6.6 6.5 6.6 6.5 6.5 6.5 6.5 6.1 5.0 4.9 6.6 7.1 7.3 7.4 7.7 7.9 7.9 6.7 6.6 5.9 6.4 7.0 7.5 7.8 7.1 7.8 6.6 6.6 6.8 7.5 7.5 7.1 6.5 5.5 5.1
6.5 6.5 6.4 6.5 6.5 6.5 6.5 6.5 6.5 6.5 6.5 6.5 6.5 6.5 6.5 6.5 6.6 5.9 5.3 7.3 7.3 7.4 7.6 7.6 7.7 7.3 7.7 7.1 6.5 7.0 6.9 7.3 6.8 6.6 6.7 5.5 6.0 6.5 6.9 7.2 6.9 6.1 5.6 5.7
6.6 6.5 6.5 6.5 6.5 6.5 6.5 6.5 6.5 6.5 6.5 6.5 6.5 6.5 6.5 6.7 7.1 7.5 7.7 7.5 7.4 7.5 7.5 7.2 7.6 7.4 7.4 8.4 8.2 7.9 8.2 7.1 6.5 6.3 6.5 5.7 5.9 6.5 6.5 7.1 6.5 5.4 5.8 5.8
6.5 6.5 6.5 6.5 6.5 6.5 6.5 6.5 6.5 6.5 6.5 6.5 6.5 6.5 6.9 7.2 7.3 7.1 7.8 7.9 7.8 8.0 8.1 8.1 8.5 8.4 6.5 7.3 6.6 6.7 7.4 7.3 6.5 6.6 6.2 6.1 6.1 6.5 6.7 6.6 5.7 5.6 6.0 5.9
6.5 6.5 6.5 6.5 6.5 6.5 6.5 6.5 7.1 6.6 6.5 6.7 6.9 6.6 6.8 7.0 6.5 6.5 7.9 8.1 8.1 8.3 8.3 8.3 8.5 8.6 8.0 8.1 7.1 6.8 7.4 6.9 5.9 6.6 6.4 6.8 6.7 6.7 6.9 6.2 6.1 6.2 6.5 6.0
6.5 6.5 6.5 6.5 6.6 6.5 6.5 6.6 7.1 6.5 6.5 7.0 7.3 7.2 7.1 6.5 7.1 7.7 8.2 8.1 8.4 8.4 8.4 8.1 8.5 8.2 7.8 6.8 7.3 6.8 7.7 6.9 7.1 7.4 7.1 7.1 6.8 6.8 7.2 6.9 6.6 6.1 5.9 5.9
6.5 6.5 6.5 6.5 6.6 6.4 7.1 6.7 6.5 6.7 7.3 7.4 7.4 7.5 7.3 7.6 7.8 7.8 8.0 8.0 8.2 8.4 8.3 8.6 8.2 8.1 6.8 6.8 7.1 6.8 7.3 7.5 6.8 7.3 7.3 7.0 6.7 7.5 8.2 6.8 6.1 6.0 6.2 6.5
6.5 6.5 6.5 6.5 6.5 6.8 7.4 7.1 7.7 7.9 7.4 7.6 7.6 8.0 7.8 7.8 7.8 8.0 7.9 8.1 8.3 8.3 8.5 8.5 8.4 8.2 7.5 7.4 8.1 7.5 7.5 7.3 7.1 7.4 7.1 6.3 6.5 6.9 7.7 7.0 6.1 6.8 6.6 7.1
6.5 6.8 6.5 6.5 6.6 6.7 7.3 7.9 7.9 8.1 7.8 8.1 8.2 8.1 8.1 7.8 8.0 8.0 8.1 8.2 8.2 8.4 8.5 8.6 8.4 7.5 8.1 8.0 7.8 7.8 7.6 7.7 7.3 7.3 7.1 6.3 5.9 6.5 7.7 7.5 6.8 7.1 7.4 7.4
6.7 6.7 6.5 6.5 6.7 7.0 7.5 7.7 7.9 8.0 8.2 8.2 8.3 8.3 8.1 8.1 8.0 8.1 8.1 8.2 8.3 8.4 8.6 8.7 8.4 8.0 7.0 7.7 7.9 8.5 7.7 7.9 7.6 7.4 7.5 7.6 7.2 6.3 7.8 7.4 6.2 6.0 6.9 6.7
7.1 6.5 6.5 6.5 7.1 6.9 7.0 7.9 8.2 8.0 8.0 8.2 8.2 8.1 8.3 8.3 8.1 8.3 8.1 8.3 8.2 8.3 8.4 8.2 8.3 7.3 6.9 6.6 8.1 8.1 8.5 7.4 7.8 8.1 8.2 8.7 8.6 8.1 8.0 8.0 8.3 1.8 2.9 0.8
Wind_Speed
15 12 15 10 3 11 7 2 14 6 8 1 7 9 10 6 15 13 16 17 18 17 16 16 14 14 20 20 19 16 15 11 8 7 7 5 5 4 4 5 8 9 5 6
16 15 20 7 6 6 8 14 9 3 6 5 10 12 13 12 14 15 17 16 20 17 20 17 18 16 15 20 18 16 15 14 10 8 7 5 5 3 4 5 6 9 5 4
19 20 15 12 10 11 17 12 2 10 2 11 11 17 18 14 14 13 12 15 21 22 23 19 19 20 16 14 13 16 17 15 14 10 6 5 4 4 2 4 5 5 8 6
18 21 18 12 13 18 13 10 7 7 9 10 3 11 9 9 6 10 10 15 14 25 23 22 22 21 20 16 13 13 13 15 13 13 9 10 8 7 7 5 5 5 12 10
18 20 19 12 13 8 3 5 7 13 13 12 16 11 4 8 10 14 15 6 6 23 25 25 24 20 20 18 15 14 14 13 14 14 11 9 10 8 6 6 7 7 6 11
19 18 17 20 11 16 13 8 9 14 12 12 16 14 11 2 7 5 24 8 3 4 25 22 21 20 17 17 17 16 16 13 13 14 15 12 11 10 4 7 5 6 5 6
22 21 18 17 11 16 17 13 11 11 8 4 15 14 8 6 18 17 3 8 6 4 21 22 21 19 18 20 19 17 18 16 15 14 13 13 11 9 8 6 5 6 4 6
18 17 22 11 18 17 17 17 11 16 4 5 7 7 7 26 2 4 10 10 8 4 8 25 23 20 20 20 19 18 19 17 16 14 13 11 11 8 8 8 7 7 7 8
17 20 17 21 16 17 20 20 10 22 7 9 8 19 27 7 21 9 4 10 14 9 3 5 23 22 21 20 18 19 18 17 16 16 13 12 11 10 8 8 9 6 7 5
23 19 20 22 19 17 21 5 4 9 14 13 13 5 2 9 17 5 31 7 10 12 7 5 6 18 21 19 17 17 17 17 17 16 15 12 13 12 11 8 8 9 8 7
23 22 17 17 13 18 13 8 4 1 10 2 6 2 8 5 3 13 21 4 4 14 10 6 8 9 14 17 17 14 14 16 17 16 15 15 13 13 11 9 9 8 9 8
24 19 15 17 17 14 18 18 21 14 7 7 10 5 23 12 9 15 27 12 10 8 10 8 7 9 11 15 15 16 15 18 16 15 12 14 15 14 14 12 9 10 9 8
19 18 17 15 15 16 13 16 19 17 17 16 8 6 7 12 14 14 8 7 7 5 3 8 10 9 11 12 14 17 18 15 16 14 15 13 13 12 13 13 12 10 9 9
16 20 17 14 16 15 18 17 17 19 14 13 7 4 16 17 12 17 12 10 7 7 6 3 8 12 12 11 14 12 15 16 13 15 16 14 12 12 12 8 12 11 10 9
14 18 20 21 22 19 14 16 16 16 19 18 20 31 28 14 14 17 25 11 6 8 4 7 3 6 12 10 11 11 14 13 14 12 14 14 12 10 8 8 10 9 9 9
16 15 16 20 19 19 15 11 8 15 13 14 16 16 2 19 13 7 12 20 6 11 11 2 4 3 10 11 10 11 10 13 13 11 12 10 8 6 6 5 8 8 9 9
16 14 16 16 16 15 16 13 14 16 11 11 11 13 9 9 15 17 20 4 13 11 7 8 7 8 5 11 10 11 9 7 8 7 9 12 11 10 8 6 7 9 8 8
18 18 13 15 15 15 14 21 20 18 15 17 16 18 14 14 15 19 18 13 10 10 9 8 7 5 9 10 12 10 10 6 8 10 9 11 11 10 8 7 8 9 7 9
18 14 13 12 12 11 19 21 16 11 18 16 15 16 15 13 10 17 16 14 12 10 11 12 13 7 9 8 10 11 9 8 8 10 11 11 12 11 9 8 8 8 8 8
12 4 7 5 7 9 8 12 16 5 10 15 13 14 14 13 7 12 16 17 16 13 12 10 13 6 12 9 11 10 10 10 11 12 11 10 11 10 10 9 9 7 8 7
9 10 8 11 6 7 5 14 15 4 6 12 15 15 14 12 10 16 16 16 17 16 12 10 8 11 4 12 12 13 10 11 9 9 10 10 10 10 9 9 7 8 7 7
11 10 9 10 12 6 14 3 6 8 11 12 13 14 13 13 14 15 17 16 18 18 18 14 10 4 7 9 9 12 12 10 9 11 11 11 11 9 9 10 8 8 8 8
5 8 4 8 8 12 17 16 14 14 11 12 12 13 13 13 13 15 15 15 15 16 16 16 14 2 8 8 7 10 10 11 11 12 12 12 11 10 10 11 11 9 10 8
14 3 10 10 13 14 14 14 13 11 11 12 12 12 14 13 14 14 14 12 13 14 13 15 15 13 3 6 8 9 10 12 13 13 13 11 12 12 11 10 10 10 10 9
10 11 10 18 15 5 14 11 9 11 11 11 12 13 14 14 14 13 11 11 11 11 12 12 12 13 11 7 8 10 10 12 13 13 12 12 11 12 11 12 11 12 12 12
14 14 12 9 10 9 10 11 10 10 12 13 13 13 14 13 13 14 10 9 7 9 10 9 12 12 14 12 6 10 11 14 14 13 12 11 11 11 11 11 10 14 14 16
Wind_Direction
215 235 251 226 119 217 234 228 268 215 177 212 259 263 260 211 193 202 193 184 185 187 178 178 196 186 159 164 168 178 169 180 178 192 199 203 202 203 203 180 197 150 222 226
239 219 252 83 204 297 260 241 255 305 99 270 266 269 275 235 214 220 198 197 184 184 174 173 181 184 204 167 175 179 179 174 185 187 197 199 198 198 209 171 183 177 229 266
234 236 220 188 203 215 244 240 98 303 232 253 251 269 270 226 227 233 236 205 190 178 173 178 180 179 186 184 176 167 176 171 182 181 192 196 205 206 205 175 171 197 206 238
243 247 256 200 241 224 257 94 274 275 284 273 198 271 275 179 214 201 217 216 213 175 174 178 182 188 176 179 182 172 177 173 183 185 199 200 210 211 210 200 182 191 192 210
235 239 251 237 231 260 202 207 227 259 270 284 271 240 190 150 214 9 290 56 243 171 181 179 181 189 183 163 184 180 176 180 181 190 208 195 210 219 203 208 189 182 222 203
251 248 232 256 211 235 190 178 224 256 256 253 348 281 69 78 133 152 264 115 334 248 174 182 179 183 178 164 184 180 177 188 190 185 198 206 203 224 233 192 184 192 206 203
235 242 248 229 262 237 224 237 255 244 225 272 31 343 303 273 176 203 244 133 138 289 175 180 180 180 178 172 193 179 174 185 192 191 197 209 212 200 236 208 189 201 197 208
228 224 234 180 232 246 242 248 250 266 244 333 49 211 269 298 65 147 198 159 129 196 218 181 180 179 180 178 193 176 175 181 189 198 199 197 216 209 220 207 193 197 218 211
230 230 207 231 206 243 243 239 271 276 233 255 165 239 187 307 5 341 128 161 159 141 228 209 177 177 177 178 194 179 167 179 188 196 195 194 207 217 221 207 191 186 219 237
246 262 220 205 206 216 243 31 28 322 290 250 258 88 38 10 70 329 283 13 149 141 166 191 208 173 169 178 185 179 171 183 190 202 191 195 196 203 233 205 195 198 209 237
243 257 270 220 191 215 217 123 114 346 268 276 351 48 355 80 114 278 286 125 45 146 145 174 178 181 174 167 166 181 182 196 192 200 191 188 190 199 207 228 198 203 206 195
226 249 256 215 201 216 250 236 193 214 170 185 197 212 203 146 155 246 262 43 50 9 130 152 166 183 178 169 184 177 192 212 192 199 204 190 185 194 193 205 193 199 209 198
207 236 255 250 229 193 220 247 264 232 251 241 227 138 8 181 255 230 101 106 120 69 100 162 160 182 185 188 192 188 191 207 193 195 192 189 196 196 198 194 184 197 204 204
222 223 232 246 241 202 209 222 238 254 260 281 337 291 24 327 323 334 346 107 92 140 131 304 187 177 179 193 183 189 185 196 203 190 190 195 194 207 207 196 183 189 200 198
231 219 232 233 266 273 219 216 221 250 275 284 190 247 186 175 270 22 321 305 115 135 101 140 270 166 169 180 174 181 181 186 192 197 192 191 191 202 196 193 177 186 187 197
215 235 239 248 250 260 263 264 261 217 240 265 280 297 273 146 127 109 271 287 23 58 41 72 182 203 181 178 167 179 180 183 194 188 193 160 159 202 196 201 170 178 195 202
221 216 236 240 235 257 258 250 251 263 255 262 254 266 292 164 154 151 237 12 38 25 39 357 334 178 229 176 168 171 184 173 175 168 161 154 170 182 194 196 173 194 198 195
212 217 219 238 220 231 249 235 223 232 52 26 12 18 29 21 15 56 45 36 24 8 342 319 288 187 176 185 176 180 180 185 172 157 163 156 168 183 188 190 184 200 197 200
205 209 213 226 234 230 22 24 11 136 57 31 25 22 8 2 350 43 34 25 3 339 343 348 316 194 153 163 154 161 177 187 168 169 175 165 173 183 182 183 200 191 194 199
283 212 267 246 247 277 113 353 340 312 78 22 25 24 12 1 342 26 18 9 356 358 354 347 334 339 144 155 143 164 182 178 180 181 181 171 176 182 184 181 193 194 195 190
252 275 264 201 275 68 9 337 316 293 56 29 30 25 23 22 356 1 11 14 356 343 352 347 351 327 180 155 158 171 186 184 182 182 183 176 178 184 187 182 181 178 185 184
200 237 249 278 238 103 329 356 51 97 65 42 31 31 19 12 4 1 356 8 359 352 351 348 339 23 97 138 156 172 183 172 170 181 186 181 181 187 192 182 169 180 181 176
58 9 81 34 97 81 61 67 49 63 59 33 25 17 11 10 7 0 349 7 356 353 346 340 337 110 137 157 194 179 174 165 178 188 185 183 182 194 188 185 174 184 180 186
113 274 121 117 110 95 75 56 40 50 40 21 14 7 2 0 354 357 346 1 352 351 350 344 335 344 185 160 162 181 176 183 185 192 188 184 188 195 195 190 182 187 189 196
40 34 61 92 34 65 64 39 22 32 16 4 360 358 347 344 340 338 340 345 356 346 350 345 337 332 336 176 182 188 193 186 190 196 194 193 191 192 205 201 192 198 201 198
43 30 35 65 36 13 12 343 19 6 352 344 345 339 329 330 323 316 322 330 357 337 339 349 341 336 337 339 227 203 211 187 194 201 201 201 198 192 207 200 210 208 216 196